Tracking 29892 objects as of 21-Nov-2024
HD Live streaming from Space Station
objects crossing your sky now

THORAD AGENA D DEB

Track THORAD AGENA D DEB now!
10-day predictions


NORAD ID: 13518
Int'l Code: 1970-025NR
Perigee: 945.6 km
Apogee: 953.5 km
Inclination: 100.0 °
Period: 103.9 minutes
Semi major axis: 7320 km
RCS: 0.0562 m2 (small)
Launch date: April 8, 1970
Source: United States (US)
Launch site: AIR FORCE WESTERN TEST RANGE (AFWTR)

Note: This is SATELLITE DEBRIS
Your satellite tracking list
Your tracking list is empty




NASA's NSSDC Master Catalog

Two Line Element Set (TLE):
1 13518U 70025NR  24325.56734823  .00003127  00000-0  27563-2 0  9994
2 13518 100.0206  68.0524 0005353 204.8988 276.3849 13.86074068170795
Source of the keplerian elements: AFSPC